Regional Weather Roundup
Issued by NWS

Home | Current Version | Previous Version | Graphics & Text | Print | Product List | Glossary On
Versions: 1 2 3 4 5 6 7 8 9 10 11 12 13 14 15 16 17 18 19 20 21 22 23 24 25 26 27 28 29 30 31 32 33 34 35 36 37 38 39 40 41 42 43 44 45 46 47 48 49 50
000
ASUS43 KOAX 250710
RWRNE

WEATHER ROUNDUP FOR NEBRASKA
NATIONAL WEATHER SERVICE OMAHA NE
200 AM CDT SAT OCT 25 2014

NOTES: SATELLITE DATA IS BEING USED TO AUGMENT CLOUD COVER ABOVE
       12000 FEET.
       "FAIR" INDICATES FEW OR NO CLOUDS BELOW 12,000 FEET WITH NO
       SIGNIFICANT WEATHER AND/OR OBSTRUCTIONS TO VISIBILITY.

  * THESE STATIONS DO NOT REPORT WEATHER SUCH AS RAIN...SNOW OR FOG.

NEZ001>004-019>022-054>056-250800-
NEBRASKA PANHANDLE

CITY           SKY/WX    TMP DP  RH WIND       PRES   REMARKS
SCOTTSBLUFF    CLEAR     53  32  44 NE3       30.14R
ALLIANCE       CLEAR     34  31  88 W9        30.13R WCI  27
CHADRON        CLEAR     36  33  89 W6        30.14S WCI  31
KIMBALL        CLEAR     46  28  49 W7        30.17S
SIDNEY         CLEAR     45  32  60 W6        30.15S
$$

NEZ057>060-069>072-079>082-250800-
SOUTHWEST NEBRASKA

CITY           SKY/WX    TMP DP  RH WIND       PRES   REMARKS
NORTH PLATTE   CLEAR     42  36  79 CALM      30.08S
IMPERIAL       CLEAR     45  34  65 N7        30.10S
LEXINGTON      CLEAR     45  41  86 N3        30.07R
MCCOOK         CLEAR     46  37  71 CALM      30.07S
OGALLALA       CLEAR     42  35  76 W5        30.10S
$$

NEZ005>010-023>029-035>040-094-250800-
NORTH CENTRAL NEBRASKA

CITY           SKY/WX    TMP DP  RH WIND       PRES   REMARKS
VALENTINE      CLEAR     41  34  76 N5        30.10R
AINSWORTH      CLEAR     48  36  63 CALM      30.09S
BROKEN BOW     CLEAR     42  38  85 N3        30.07S
O`NEILL        CLEAR     50  41  71 W5        30.07R
ORD            CLEAR     38  36  92 W3        30.05S
THEDFORD       CLEAR     44  34  69 W3        30.09R
$$

NEZ041-046>049-061>064-073>077-083>087-250800-
SOUTH CENTRAL NEBRASKA

CITY           SKY/WX    TMP DP  RH WIND       PRES   REMARKS
GRAND ISLAND   CLEAR     48  44  86 SW3       30.05R
AURORA         CLEAR     48  44  86 SW5       30.05R
HASTINGS       CLEAR     49  43  80 CALM      30.05S
HEBRON         CLEAR     49  46  90 CALM      30.03S
HOLDREGE       CLEAR     48  43  84 CALM      30.06S
KEARNEY *      CLEAR     48  41  76 CALM      30.06S
YORK           CLEAR     48  46  93 CALM      30.03S
$$

NEZ011>018-030>034-042>045-250800-
NORTHEAST NEBRASKA

CITY           SKY/WX    TMP DP  RH WIND       PRES   REMARKS
NORFOLK        CLEAR     44  42  93 NW3       30.03R
ALBION         CLEAR     42  38  87 CALM      30.04S
BLAIR          CLEAR     60  45  59 N7        30.01S
COLUMBUS *     CLEAR     45  39  81 CALM      30.04S
FREMONT        CLEAR     50  46  87 CALM      30.02S
TEKAMAH        CLEAR     49  44  83 NW3       30.02S
WAYNE          CLEAR     43  41  93 SW3       30.03S
$$

NEZ050>053-065>068-078-088>093-250800-
SOUTHEAST NEBRASKA

CITY           SKY/WX    TMP DP  RH WIND       PRES   REMARKS
LINCOLN        CLEAR     48  45  89 N3        30.03S
OMAHA EPPLEY   CLEAR     50  49  96 NW6       30.02R
BEATRICE       CLEAR     49  48  97 SW3       30.03S FOG
FALLS CITY     CLEAR     56  55  97 W5        30.01R FOG
NEBRASKA CITY  CLEAR     58  48  69 N7        30.01S
PLATTSMOUTH    CLEAR     56  49  77 NW3       30.01S
$$

NEZ044-045-051>053-067-250800-
OMAHA AREA

CITY           SKY/WX    TMP DP  RH WIND       PRES   REMARKS
OMAHA EPPLEY   CLEAR     50  49  96 NW6       30.02R
BLAIR          CLEAR     60  45  59 N7        30.01S
FREMONT        CLEAR     50  46  87 CALM      30.02S
MILLARD        CLEAR     51  50  95 CALM      30.01S FOG
OFFUTT AFB     FOG       48  48 100 CALM      30.00S VSB 1/2
PLATTSMOUTH    CLEAR     56  49  77 NW3       30.01S
WAHOO          FAIR      49  45  86 N3        30.02R
$$



USA.gov is the U.S. government's official web portal to all federal, state and local government web resources and services.